This demonstration page uses our WeatherBlox Daily Observations layout. Learn more.

Left ArrowRight Arrow

Hourly Observations for December 12, 2020

Temp ( °F °C ) Dew Point ( °F °C ) Humidity (%) Winds ( mph kmh ) Pressure ( in mb ) Visibility ( mi km ) Precip ( " mm )
12:15 am 00:15 Cloudy with Light Snow 30 -1.2 28 -2.5 91 91 N 17 28 30.08 1018 3 4 N/A
12:35 am 00:35 Cloudy with Light Snow 29 -1.5 28 -2.5 93 93 N 15 24 30.08 1019 3 5 N/A
12:55 am 00:55 Cloudy with Light Snow 29 -1.5 27 -2.6 92 92 N 13 20 30.08 1019 3 4 N/A
1:15 am 01:15 Cloudy with Light Snow 29 -1.6 27 -2.6 93 93 N 14 22 30.08 1019 3 4 N/A
1:35 am 01:35 Cloudy with Light Snow 29 -1.8 27 -3 92 92 N 15 24 30.08 1019 3 5 N/A
1:55 am 01:55 Cloudy with Light Snow 28 -2 27 -3 93 93 N 14 22 30.08 1019 3 5 N/A
2:15 am 02:15 Cloudy with Light Snow 28 -2.1 26 -3.2 92 92 N 12 19 30.08 1019 4 6 N/A
2:35 am 02:35 Cloudy with Light Snow 28 -2.2 26 -3.4 92 92 N 13 20 30.10 1019 5 8 N/A
2:55 am 02:55 Cloudy with Light Snow 28 -2 26 -3.4 90 90 N 14 22 30.10 1019 10 16 N/A
3:15 am 03:15 Cloudy 28 -2 26 -3.5 90 90 N 10 17 30.10 1019 10 16 N/A
3:35 am 03:35 Cloudy 28 -2 25 -3.7 88 88 N 14 22 30.11 1020 10 16 N/A
3:55 am 03:55 Cloudy 28 -2.3 24 -4.2 87 87 N 14 22 30.12 1020 10 16 N/A
4:15 am 04:15 Cloudy 28 -2.5 24 -4.4 87 87 NNW 14 22 30.13 1020 10 16 N/A
4:35 am 04:35 Cloudy 27 -2.7 24 -4.6 87 87 N 13 20 30.13 1020 10 16 N/A
4:55 am 04:55 Cloudy 27 -3 23 -5 86 86 NNW 9 15 30.13 1020 10 16 N/A
5:15 am 05:15 Cloudy 26 -3.3 23 -5.1 88 88 N 12 19 30.15 1021 10 16 N/A
5:35 am 05:35 Cloudy 26 -3.6 23 -5.2 89 89 N 10 17 30.15 1021 10 16 N/A
5:55 am 05:55 Cloudy 26 -3.6 23 -5.2 89 89 NNW 9 15 30.16 1021 10 16 N/A
6:15 am 06:15 Cloudy 25 -3.7 22 -5.3 89 89 N 14 22 30.16 1021 10 16 N/A
6:35 am 06:35 Cloudy 25 -3.7 23 -5.2 89 89 NNW 10 17 30.19 1022 10 16 N/A
6:55 am 06:55 Cloudy 26 -3.5 23 -5.1 89 89 N 12 19 30.18 1022 10 16 N/A
7:15 am 07:15 Cloudy 25 -3.8 22 -5.5 88 88 N 13 20 30.15 1021 10 16 N/A
7:35 am 07:35 Partly Cloudy 23 -5 20 -6.4 90 90 N 8 13 30.16 1021 10 16 N/A
7:55 am 07:55 Mostly Cloudy 22 -5.5 20 -6.9 90 90 N 14 22 30.19 1022 10 16 N/A
8:15 am 08:15 Cloudy 23 -5 20 -6.5 89 89 N 10 17 30.18 1022 10 16 N/A
8:35 am 08:35 Cloudy 24 -4.5 21 -5.9 90 90 NNE 12 19 30.18 1022 10 16 N/A
8:55 am 08:55 Cloudy 25 -4 22 -5.5 89 89 N 10 17 30.18 1022 10 16 N/A
9:15 am 09:15 Cloudy 25 -3.8 22 -5.3 89 89 N 12 19 30.18 1022 10 16 N/A
9:35 am 09:35 Cloudy 25 -4 22 -5.6 89 89 NNE 12 19 30.18 1022 10 16 N/A
9:55 am 09:55 Cloudy 24 -4.2 22 -5.7 89 89 NNE 13 20 30.20 1023 10 16 N/A
10:15 am 10:15 Cloudy 25 -4.1 22 -5.7 89 89 N 12 19 30.20 1023 10 16 N/A
10:35 am 10:35 Cloudy 25 -4.1 22 -5.6 89 89 NNE 13 20 30.20 1023 10 16 N/A
10:55 am 10:55 Cloudy 25 -4 22 -5.5 89 89 N 13 20 30.19 1022 10 16 N/A
11:15 am 11:15 Cloudy 25 -4 22 -5.6 89 89 NNE 10 17 30.19 1022 10 16 N/A
11:35 am 11:35 Cloudy 25 -4.1 22 -5.7 89 89 NNE 9 15 30.20 1023 10 16 N/A
11:55 am 11:55 Cloudy 25 -4 22 -5.8 87 87 NNE 6 9 30.21 1023 10 16 N/A
12:15 pm 12:15 Cloudy 26 -3.6 22 -5.5 87 87 N 3 6 30.21 1023 10 16 N/A
12:35 pm 12:35 Cloudy 26 -3.6 22 -5.7 86 86 NW 5 7 30.21 1023 10 16 N/A
12:55 pm 12:55 Cloudy 26 -3.6 22 -5.7 86 86 N 6 9 30.19 1022 10 16 N/A
1:15 pm 13:15 Cloudy 25 -3.8 22 -5.8 86 86 NNW 5 7 30.19 1022 10 16 N/A
1:35 pm 13:35 Cloudy 25 -4 21 -6 86 86 N 5 7 30.18 1022 10 16 N/A
1:55 pm 13:55 Cloudy 25 -4 21 -6 86 86 N 5 7 30.18 1022 10 16 N/A
2:15 pm 14:15 Cloudy 25 -3.8 22 -5.8 86 86 N N/A 30.19 1022 10 16 N/A
2:35 pm 14:35 Cloudy 25 -3.9 21 -5.9 86 86 N 3 6 30.17 1022 10 16 N/A
2:55 pm 14:55 Cloudy 25 -4 22 -5.8 87 87 N 6 9 30.17 1022 10 16 N/A
3:15 pm 15:15 Cloudy 25 -4 22 -5.8 87 87 ENE 3 6 30.16 1021 10 16 N/A
3:35 pm 15:35 Cloudy 25 -4.1 22 -5.8 88 88 ENE 6 9 30.15 1021 10 16 N/A
3:55 pm 15:55 Mostly Cloudy 24 -4.2 21 -6 87 87 ENE 6 9 30.16 1021 10 16 N/A
4:15 pm 16:15 Mostly Cloudy 24 -4.2 22 -5.8 89 89 ENE 3 6 30.16 1021 10 16 N/A
4:35 pm 16:35 Cloudy 24 -4.3 21 -5.9 89 89 E 5 7 30.18 1022 10 16 N/A
4:55 pm 16:55 Cloudy 24 -4.5 21 -6.1 89 89 N N/A 30.18 1022 10 16 N/A
5:15 pm 17:15 Cloudy 23 -4.8 21 -6.2 90 90 ENE 6 9 30.17 1022 10 16 N/A
5:35 pm 17:35 Cloudy 24 -4.5 21 -6 89 89 E 3 6 30.18 1022 10 16 N/A
5:55 pm 17:55 Cloudy 24 -4.5 21 -5.9 90 90 ENE 5 7 30.18 1022 10 16 N/A
6:15 pm 18:15 Cloudy 24 -4.5 21 -5.9 90 90 NE 7 11 30.19 1022 10 16 N/A
6:35 pm 18:35 Cloudy 24 -4.7 21 -6 91 91 NE 8 13 30.21 1023 10 16 N/A
6:55 pm 18:55 Cloudy 23 -4.9 21 -6.1 91 91 NE 10 17 30.21 1023 10 16 N/A
7:15 pm 19:15 Cloudy 22 -5.5 20 -6.7 91 91 ENE 6 9 30.23 1024 10 16 N/A
7:35 pm 19:35 Cloudy 22 -5.5 20 -6.6 92 92 E 6 9 30.24 1024 10 16 N/A
7:55 pm 19:55 Cloudy 22 -5.3 20 -6.5 91 91 ENE 7 11 30.24 1024 10 16 N/A
8:15 pm 20:15 Cloudy 22 -5.3 21 -6.2 93 93 NE 6 9 30.25 1024 10 16 N/A
8:35 pm 20:35 Cloudy 22 -5.3 21 -6.2 93 93 ENE 6 9 30.26 1025 10 16 N/A
8:55 pm 20:55 Cloudy 22 -5.5 21 -6.3 94 94 ENE 7 11 30.27 1025 10 16 N/A
9:15 pm 21:15 Cloudy 22 -5.5 21 -6.3 94 94 NE 3 6 30.28 1025 7 11 N/A
9:35 pm 21:35 Cloudy 22 -5.6 20 -6.5 93 93 N N/A 30.28 1025 10 16 N/A
9:55 pm 21:55 Cloudy 22 -5.7 20 -6.5 94 94 N N/A 30.29 1026 7 11 N/A
10:15 pm 22:15 Cloudy 22 -5.7 20 -6.5 94 94 N N/A 30.28 1025 7 11 N/A
10:35 pm 22:35 Cloudy 22 -5.8 20 -6.5 95 95 N N/A 30.28 1025 7 11 N/A
10:55 pm 22:55 Cloudy 21 -5.9 20 -6.6 95 95 N N/A 30.29 1026 7 11 N/A
11:15 pm 23:15 Cloudy 21 -6 20 -6.7 95 95 N N/A 30.30 1026 7 11 N/A
11:35 pm 23:35 Cloudy with Mist and Fog 21 -6 20 -6.7 95 95 N N/A 30.30 1026 5 8 N/A
11:55 pm 23:55 Cloudy with Mist and Fog 21 -6 20 -6.7 95 95 S 3 6 30.31 1027 5 8 N/A

Powered by AerisWeather